Location: ČR
(50.0000°N, 15.0000°E)
Time: 06:41:29
(UTC+02:00)

A-11 Canister half - Pass Details

Date: 23 March 2026
Orbit: 1514 x 1685 km, 47.2° (Epoch: 18 April)

Event Time Altitude Azimuth Distance (km) Brightness Sun altitude
Rises 12:55:54 0° 240° (WSW) 4,797 12.1 40.0°
Reaches altitude 10° 12:58:59 10° 238° (WSW) 3,835 11.8 39.9°
Maximum altitude 13:08:39 65° 160° (SSE) 1,794 10.5 39.4°
Drops below altitude 10° 13:18:37 10° 82° (E) 3,945 11.0 38.8°
Sets 13:21:50 0° 79° (E) 4,941 11.4 38.6°
